Domov               UVHVVR             MKGP            O straneh              
ZDRAVSTVENO VARSTVO RASTLIN
  MREŽA AGROMET. POSTAJ
 ► PROGNOSTIČNA OBVESTILA
AGROMETEOROLOŠKI PODATKI -
ARSO
OBVLADOVANJE TVEGANJ ZARADI
NEUGODNIH VREMENSKIH RAZMER
  ► NARAVNE NESREČE
  ► SUŠA/MOČA
  ► NAMAKANJE
  ► ŽLED (gozdarstvo)
KARTOGRAFSKI PRIKAZI
SPLETNE POVEZAVE
PROJEKTI IN PUBLIKACIJE

AGROMETEOROLOŠKA MREŽA: VREMENSKE POSTAJE IN FENOLOŠKA OPAZOVANJA

Pregled podatkov za lokacijo Črnomelj, meteorološka postaja 859096

Pregled senzorjev na lokaciji

ID Ime Zadnja
vrednost
Datum
zadnje
spremembe
Tip
senzorja
4082 Omočenost lista (U) 0 U 19.8.2018 08:15 A730WET
4083 Padavine (mm) 0 mm 19.8.2018 08:15 Rain-O-Matic
4081 Relativna vlaga 2 m (% RH) 78,78 % RH 19.8.2018 08:15 50YA
4080 Temperatura 2 m (°C) 21,28 °C 19.8.2018 08:15 50YA

Pregled podatkov zadnjih 24 ur

Zap.
št.
Datum in čas Črnomelj
Omočenost
lista
Padavine Relativna
vlaga
2
m
Temperatura
2
m
1 19.8.2018 08:30
2 19.8.2018 08:00
3 19.8.2018 07:30 0 0 78,8 21,3
4 19.8.2018 07:00 0 0 77,1 21,5
5 19.8.2018 06:30 0 0 79,3 20,6
6 19.8.2018 06:00 0 0 82,5 19
7 19.8.2018 05:30 0 0 77,7 19,7
8 19.8.2018 05:00 0 0 77,5 19,7
9 19.8.2018 04:30 0 0 76,4 20
10 19.8.2018 04:00 0 0 73,9 20,4
11 19.8.2018 03:30 0 0 77,4 19,7
12 19.8.2018 03:00 0 0 77,3 19,8
13 19.8.2018 02:30 0 0 75 20,3
14 19.8.2018 02:00 0 0 74,7 20,4
15 19.8.2018 01:30 0 0 74,9 20,4
16 19.8.2018 01:00 0 0 74,6 20,5
17 19.8.2018 00:30 0 0 73,6 20,7
18 19.8.2018 00:00 0 0 73,1 20,9
19 18.8.2018 23:30 0 0 72,4 21,1
20 18.8.2018 23:00 0 0 71,9 21,2
21 18.8.2018 22:30 0 0 71,7 21,3
22 18.8.2018 22:00 0 0 71,2 21,4
23 18.8.2018 21:30 0 0 71,3 21,7
24 18.8.2018 21:00 0 0 71 22
25 18.8.2018 20:30 0 0 71,8 22,1
26 18.8.2018 20:00 0 0 72,8 22,4
27 18.8.2018 19:30 0 0 67,3 23,6
28 18.8.2018 19:00 0 0 65,5 23,9
29 18.8.2018 18:30 0 0 58,3 25,4
30 18.8.2018 18:00 0 0 55,3 26,2
31 18.8.2018 17:30 0 0 51,8 27,3
32 18.8.2018 17:00 0 0 49,3 28,3
33 18.8.2018 16:30 0 0 46,2 29,2
34 18.8.2018 16:00 0 0 45,2 29,3
35 18.8.2018 15:30 0 0 43,4 29,6
36 18.8.2018 15:00 0 0 44,1 29,9
37 18.8.2018 14:30 0 0 45,1 30,4
38 18.8.2018 14:00 0 0 44,1 30,9
39 18.8.2018 13:30 0 0 44,9 30,9
40 18.8.2018 13:00 0 0 45,1 30,8
41 18.8.2018 12:30 0 0 50,2 29,2
42 18.8.2018 12:00 0 0 49,9 29,2
43 18.8.2018 11:30 0 0 52,2 28,8
44 18.8.2018 11:00 0 0 54 28,4
45 18.8.2018 10:30 0 0 54,2 28,4
46 18.8.2018 10:00 0 0 55,6 27,4
47 18.8.2018 09:30 0 0 61,4 26,5
48 18.8.2018 09:00 0 0 68,3 25,3
© 2011 Ministrstvo za kmetijstvo, gozdarstvo in prehrano. Vse pravice pridržane.